STARLINK-1678 (46538 NORAD) Tracking and Keplerian Element Data

This shows tracking and keplerian element data for the satellite.

Feedback or suggestion? Click here.




ElementValue
Catalog46538
NameSTARLINK-1678
Epoch Orbit957
Epoch Day339.00002315
Epoch Year2020
RAAN163.4605
Inclination52.9914
Eccentricity0.0001644
Argument of Perigee66.8939
Mean Anonmoly106.4978
Mean Motion15.05568021
Decay Rate0.00036138
L11 46538U 20070G 20339.00002315 .00036138 00000-0 24875-2 0 9992
L22 46538 52.9914 163.4605 0001644 66.8939 106.4978 15.05568021 9578

Live tracking and technical data element details for STARLINK-1678 (NORAD 46538). STARLINK-1678 can be tracked NOW for your location showing map with azimuth and elevation plus other details from your city location.

Track the satellite on the map from your city or location and see movement details for azimuth, elevation, latitude, longitude, range, height, and movement on the map or in text.







IsCatalogInMostPopularTable: catalog: 46538, numindb: 19
Update: records affected: 1



GetName: 46538 STARLINK-1678

Hit Count: updated at: Sun, 06 Dec 2020 00:42:59 GMT